| time (UTC) | temp C | wind direction | speed KPH | gust KPH | rain 1hr cm | rain 24hr cm | rain mn cm | humidity % | barometer mb |
| 20260508065403 | 20 | 90 | 6.4 | 8.0 | 0.00 | 0.00 | 0.00 | 100 | 1013.8 |
| 20260508064402 | 19 | 158 | 6.4 | 6.4 | 0.00 | 0.00 | 0.00 | 100 | 1013.7 |
| 20260508055403 | 18 | 225 | 3.2 | 3.2 | 0.00 | 0.00 | 0.00 | 100 | 1013.3 |
| 20260508054403 | 18 | 225 | 1.6 | 1.6 | 0.00 | 0.00 | 0.00 | 100 | 1013.2 |
| 20260508053402 | 18 | 248 | 3.2 | 3.2 | 0.00 | 0.00 | 0.00 | 100 | 1013.2 |
| 20260508050317 | 16 | 225 | 0.0 | 0.0 | 0.00 | 0.00 | 0.00 | 100 | 1012.9 |
| 20260508044317 | 15 | 225 | 3.2 | 3.2 | 0.00 | 0.00 | 0.00 | 100 | 1012.9 |
| 20260508041315 | 14 | 270 | 1.6 | 3.2 | 0.00 | 0.00 | 0.00 | 100 | 1012.2 |
| 20260508035313 | 13 | 270 | 0.0 | 0.0 | 0.00 | 0.00 | 0.00 | 100 | 1012.2 |
| 20260508033312 | 14 | 248 | 0.0 | 0.0 | 0.00 | 0.00 | 0.00 | 100 | 1012.2 |
| 20260508031312 | 14 | 270 | 0.0 | 0.0 | 0.00 | 0.00 | 0.00 | 100 | 1011.7 |
| 20260508024311 | 14 | 225 | 0.0 | 0.0 | 0.00 | 0.00 | 0.00 | 100 | 1011.6 |
| 20260508023311 | 14 | 135 | 0.0 | 0.0 | 0.00 | 0.00 | 0.00 | 100 | 1011.5 |
| 20260508021309 | 14 | 315 | 0.0 | 0.0 | 0.00 | 0.00 | 0.00 | 100 | 1011.5 |
| 20260508020309 | 14 | 0 | 1.6 | 3.2 | 0.00 | 0.00 | 0.00 | 100 | 1011.6 |
| 20260508013307 | 15 | 315 | 0.0 | 1.6 | 0.00 | 0.00 | 0.00 | 100 | 1011.5 |
| 20260508011306 | 15 | 90 | 0.0 | 0.0 | 0.00 | 0.00 | 0.00 | 100 | 1011.5 |
| 20260508010306 | 15 | 135 | 0.0 | 1.6 | 0.00 | 0.00 | 0.00 | 100 | 1011.0 |
| 20260508005306 | 15 | 135 | 1.6 | 3.2 | 0.00 | 0.00 | 0.00 | 100 | 1011.2 |
| 20260508004304 | 15 | 90 | 3.2 | 4.8 | 0.00 | 0.00 | 0.00 | 100 | 1011.3 |
| 20260508003303 | 15 | 141 | 8.0 | 12.9 | 0.00 | 0.00 | 0.00 | 100 | 1011.7 |
| 20260508002306 | 15 | 135 | 4.8 | 6.4 | 0.00 | 0.00 | 0.00 | 100 | 1011.8 |
| 20260508001301 | 15 | 0 | 3.2 | 4.8 | 0.00 | 0.00 | 0.00 | 100 | 1012.0 |
| 20260507235306 | 15 | 0 | 6.4 | 6.4 | 0.00 | 0.00 | 0.00 | 100 | 1012.1 |
| 20260507234302 | 15 | 0 | 6.4 | 6.4 | 0.00 | 0.00 | 0.00 | 100 | 1012.4 |
| 20260507231304 | 15 | 270 | 3.2 | 3.2 | 0.00 | 0.00 | 0.00 | 100 | 1013.4 |
| 20260507230304 | 15 | 292 | 6.4 | 8.0 | 0.00 | 0.00 | 0.00 | 100 | 1013.5 |
| 20260507221301 | 15 | 225 | 3.2 | 3.2 | 0.00 | 0.00 | 0.00 | 100 | 1013.6 |
| 20260507214304 | 15 | 315 | 4.8 | 6.4 | 0.00 | 0.00 | 0.00 | 100 | 1012.4 |
| 20260507213303 | 15 | 0 | 12.9 | 14.5 | 0.00 | 0.00 | 0.00 | 100 | 1012.1 |
| 20260507212306 | 15 | 180 | 8.0 | 12.9 | 0.00 | 0.00 | 0.00 | 100 | 1012.2 |
| 20260507211304 | 15 | 135 | 11.3 | 16.1 | 0.00 | 0.00 | 0.00 | 100 | 1011.8 |
| 20260507205306 | 15 | 0 | 8.0 | 12.9 | 0.00 | 0.00 | 0.00 | 100 | 1012.2 |
| 20260507203303 | 15 | 0 | 4.8 | 8.0 | 0.00 | 0.00 | 0.00 | 100 | 1012.2 |
| 20260507200304 | 15 | 0 | 1.6 | 3.2 | 0.00 | 0.00 | 0.00 | 100 | 1012.4 |
| 20260507194304 | 15 | 225 | 11.3 | 14.5 | 0.00 | 0.00 | 0.00 | 100 | 1012.0 |
| 20260507193303 | 15 | 315 | 8.0 | 12.9 | 0.00 | 0.00 | 0.00 | 100 | 1011.8 |
| 20260507190304 | 15 | 141 | 3.2 | 3.2 | 0.00 | 0.00 | 0.00 | 100 | 1011.5 |
| 20260507185305 | 15 | 0 | 3.2 | 4.8 | 0.00 | 0.00 | 0.00 | 100 | 1011.2 |
| 20260507184301 | 15 | 0 | 4.8 | 6.4 | 0.00 | 0.00 | 0.00 | 100 | 1011.7 |
| 20260507183303 | 15 | 315 | 3.2 | 3.2 | 0.00 | 0.00 | 0.00 | 100 | 1011.6 |
| 20260507182306 | 15 | 0 | 4.8 | 6.4 | 0.00 | 0.00 | 0.00 | 100 | 1011.2 |
| 20260507180303 | 15 | 225 | 4.8 | 6.4 | 0.00 | 0.00 | 0.00 | 100 | 1011.5 |
| 20260507173302 | 15 | 180 | 8.0 | 12.9 | 0.00 | 0.00 | 0.00 | 100 | 1011.2 |
| 20260507171303 | 16 | 0 | 11.3 | 12.9 | 0.00 | 0.00 | 0.00 | 100 | 1011.1 |
| 20260507164302 | 16 | 270 | 12.9 | 19.3 | 0.00 | 0.00 | 0.00 | 100 | 1011.2 |
| 20260507163305 | 16 | 90 | 16.1 | 25.7 | 0.00 | 0.00 | 0.00 | 100 | 1011.0 |
| 20260507161303 | 17 | 225 | 16.1 | 20.9 | 0.00 | 0.00 | 0.00 | 100 | 1011.1 |
| 20260507155306 | 17 | 90 | 14.5 | 20.9 | 0.00 | 0.00 | 0.00 | 100 | 1011.3 |
| 20260507154302 | 17 | 270 | 14.5 | 24.1 | 0.00 | 0.00 | 0.00 | 100 | 1011.7 |
| 20260507153303 | 17 | 180 | 8.0 | 12.9 | 0.00 | 0.00 | 0.00 | 100 | 1011.2 |
| 20260507144303 | 18 | 315 | 17.7 | 29.0 | 0.00 | 0.00 | 0.00 | 100 | 1010.6 |
| 20260507143302 | 18 | 0 | 14.5 | 20.9 | 0.00 | 0.00 | 0.00 | 100 | 1010.5 |
| 20260507141303 | 17 | 202 | 20.9 | 25.7 | 0.00 | 0.00 | 0.00 | 100 | 1010.8 |
| 20260507135306 | 17 | 180 | 19.3 | 27.4 | 0.00 | 0.00 | 0.00 | 100 | 1010.9 |
| 20260507133302 | 17 | 90 | 17.7 | 25.7 | 0.00 | 0.00 | 0.00 | 100 | 1010.9 |
| 20260507131302 | 17 | 225 | 25.7 | 32.2 | 0.00 | 0.00 | 0.00 | 100 | 1011.0 |
| 20260507125306 | 17 | 135 | 16.1 | 25.7 | 0.00 | 0.00 | 0.00 | 100 | 1011.2 |
| 20260507115217 | 18 | 180 | 24.1 | 35.4 | 0.00 | 0.00 | 0.00 | 100 | 1011.5 |
| 20260507112215 | 18 | 90 | 25.7 | 35.4 | 0.00 | 0.00 | 0.00 | 100 | 1011.3 |
| 20260507111215 | 17 | 135 | 19.3 | 29.0 | 0.00 | 0.00 | 0.00 | 100 | 1011.5 |
| 20260507102211 | 17 | 180 | 24.1 | 30.6 | 0.00 | 0.00 | 0.00 | 100 | 1011.7 |
| 20260507101210 | 17 | 135 | 33.8 | 51.5 | 0.00 | 0.00 | 0.00 | 100 | 1011.8 |
| 20260507100210 | 18 | 90 | 16.1 | 25.7 | 0.00 | 0.00 | 0.00 | 100 | 1012.1 |
| 20260507095211 | 17 | 135 | 20.9 | 33.8 | 0.00 | 0.00 | 0.00 | 100 | 1011.9 |
| 20260507094208 | 17 | 315 | 17.7 | 25.7 | 0.00 | 0.00 | 0.00 | 100 | 1011.9 |
| 20260507093208 | 17 | 90 | 16.1 | 27.4 | 0.00 | 0.00 | 0.00 | 100 | 1012.1 |
| 20260507085205 | 17 | 180 | 25.7 | 37.0 | 0.00 | 0.00 | 0.00 | 100 | 1012.2 |
| 20260507084205 | 17 | 158 | 24.1 | 32.2 | 0.00 | 0.00 | 0.00 | 100 | 1012.2 |
| 20260507080203 | 17 | 0 | 25.7 | 38.6 | 0.00 | 0.00 | 0.00 | 100 | 1012.3 |